This is the latest recevied weather packets stored in our database for station/object HB9TJM-8. If no packets are shown the sender has not sent any weather packets the latest 10 day(s).
| Time | Temp. | Humidity | Pressure | Rain* | Wind** | Luminosity | Snow |
|---|---|---|---|---|---|---|---|
| 1777477905 | 13.89° C | 62% | 1017.4 hPa | 0 mm | - | 138 W/m² | - |
| 1777477597 | 14.44° C | 61% | 1017.6 hPa | 0 mm | - | 155 W/m² | - |
| 1777477597 | 14.44° C | 61% | 1017.6 hPa | 0 mm | - | 155 W/m² | - |
| 1777477290 | 14.44° C | 62% | 1017.4 hPa | 0 mm | - | 187 W/m² | - |
| 1777477290 | 14.44° C | 62% | 1017.4 hPa | 0 mm | - | 187 W/m² | - |
| 1777476674 | 14.44° C | 63% | 1017.1 hPa | 0 mm | - | 236 W/m² | - |
| 1777476674 | 14.44° C | 63% | 1017.1 hPa | 0 mm | - | 236 W/m² | - |
| 1777476367 | 14.44° C | 64% | 1017.6 hPa | 0 mm | - | 241 W/m² | - |
| 1777476367 | 14.44° C | 64% | 1017.6 hPa | 0 mm | - | 241 W/m² | - |
| 1777475751 | 13.89° C | 65% | 1017.8 hPa | 0 mm | - | 268 W/m² | - |
| 1777475443 | 13.89° C | 66% | 1017.4 hPa | 0 mm | - | 242 W/m² | - |
| 1777475135 | 13.89° C | 66% | 1017.8 hPa | 0 mm | - | 227 W/m² | - |
| 1777475135 | 13.89° C | 66% | 1017.8 hPa | 0 mm | - | 227 W/m² | - |
| 1777474828 | 13.89° C | 66% | 1017.6 hPa | 0 mm | - | 208 W/m² | - |
| 1777474828 | 13.89° C | 66% | 1017.6 hPa | 0 mm | - | 208 W/m² | - |
| 1777474521 | 13.89° C | 66% | 1017.6 hPa | 0 mm | - | 211 W/m² | - |
| 1777474521 | 13.89° C | 66% | 1017.6 hPa | 0 mm | - | 211 W/m² | - |
| 1777474214 | 13.89° C | 67% | 1017.7 hPa | 0 mm | - | 222 W/m² | - |
| 1777474214 | 13.89° C | 67% | 1017.7 hPa | 0 mm | - | 222 W/m² | - |
| 1777473906 | 13.89° C | 67% | 1017.5 hPa | 0 mm | - | 210 W/m² | - |
| 1777473906 | 13.89° C | 67% | 1017.5 hPa | 0 mm | - | 210 W/m² | - |
| 1777473599 | 13.89° C | 67% | 1017.9 hPa | 0 mm | - | 233 W/m² | - |
| 1777473291 | 13.89° C | 67% | 1017.8 hPa | 0 mm | - | 255 W/m² | - |
| 1777472984 | 13.89° C | 67% | 1017.8 hPa | 0 mm | - | 258 W/m² | - |
| 1777472984 | 13.89° C | 67% | 1017.8 hPa | 0 mm | - | 258 W/m² | - |
* Rain latest hour (hover to see other rain measurements)
** Current wind speed in m/s (hover to see current wind gust speed)